TAI431 MMMX-MSLP

Flight info

Callsign TAI431
Flight time 1h 42m
Altitude 37000
Route TEVO2A TEVOS UT113 IZT J13 TAP UA317 AMESA AMES2M
Aircraft A20N/M-VGDW/C

Departure

Time 2026-04-25 21:44
Airport Mexico City Benito Juárez International Airport (MMMX)

Arrival

Time 2026-04-25 23:27
Airport El Salvador International Airport Saint Óscar Arnulfo Romero y Galdámez (MSLP)
Time Latitude Longitude Altitude Speed Heading
2026-04-25 21:28 19.43671 -99.07910 7305 ft 0 kts 251°
2026-04-25 21:34 19.43674 -99.07901 7305 ft 3 kts 251°
2026-04-25 21:34 19.43680 -99.07883 7305 ft 3 kts 251°
2026-04-25 21:35 19.43686 -99.07865 7305 ft 3 kts 223°
2026-04-25 21:35 19.43702 -99.07859 7305 ft 1 kts 147°
2026-04-25 21:39 19.43688 -99.07850 7305 ft 5 kts 148°
2026-04-25 21:39 19.43648 -99.07824 7305 ft 8 kts 150°
2026-04-25 21:39 19.43595 -99.07810 7305 ft 9 kts 204°
2026-04-25 21:39 19.43555 -99.07865 7305 ft 11 kts 239°
2026-04-25 21:40 19.43512 -99.07939 7306 ft 13 kts 239°
2026-04-25 21:40 19.43463 -99.08026 7306 ft 15 kts 239°
2026-04-25 21:40 19.43404 -99.08127 7305 ft 17 kts 238°
2026-04-25 21:40 19.43342 -99.08243 7305 ft 19 kts 239°
2026-04-25 21:41 19.43272 -99.08368 7305 ft 21 kts 239°
2026-04-25 21:41 19.43194 -99.08505 7304 ft 23 kts 239°
2026-04-25 21:41 19.43115 -99.08647 7304 ft 22 kts 241°
2026-04-25 21:41 19.43040 -99.08781 7303 ft 20 kts 239°
2026-04-25 21:42 19.42972 -99.08904 7304 ft 18 kts 239°
2026-04-25 21:42 19.42914 -99.09003 7304 ft 14 kts 231°
2026-04-25 21:42 19.42839 -99.09057 7304 ft 13 kts 208°
2026-04-25 21:42 19.42767 -99.09090 7305 ft 10 kts 178°
2026-04-25 21:43 19.42754 -99.09057 7305 ft 4 kts 58°
2026-04-25 21:43 19.42833 -99.08919 7305 ft 47 kts 60°
2026-04-25 21:43 19.43084 -99.08463 7303 ft 95 kts 59°
2026-04-25 21:43 19.43501 -99.07719 7307 ft 140 kts 59°
2026-04-25 21:44 19.44067 -99.06700 7309 ft 178 kts 60°
2026-04-25 21:44 19.44724 -99.05556 7682 ft 179 kts 59°
2026-04-25 21:44 19.46074 -99.03193 8560 ft 201 kts 58°
2026-04-25 21:45 19.46816 -99.01861 8847 ft 218 kts 57°
2026-04-25 21:45 19.47351 -99.00907 9031 ft 228 kts 56°
2026-04-25 21:45 19.48466 -98.98917 9264 ft 245 kts 57°
2026-04-25 21:45 19.49315 -98.97289 9346 ft 264 kts 65°
2026-04-25 21:46 19.49676 -98.95312 9401 ft 285 kts 94°
2026-04-25 21:46 19.49014 -98.93338 9642 ft 287 kts 128°
2026-04-25 21:46 19.47577 -98.91935 10378 ft 278 kts 144°
2026-04-25 21:46 19.45984 -98.90778 11024 ft 278 kts 147°
2026-04-25 21:47 19.44347 -98.89646 11561 ft 284 kts 147°
2026-04-25 21:47 19.42680 -98.88492 12096 ft 288 kts 147°
2026-04-25 21:47 19.41005 -98.87324 12715 ft 290 kts 146°
2026-04-25 21:47 19.39324 -98.86146 13272 ft 296 kts 146°
2026-04-25 21:48 19.37588 -98.84925 13845 ft 302 kts 146°
2026-04-25 21:48 19.35830 -98.83687 14446 ft 304 kts 146°
2026-04-25 21:48 19.34025 -98.82514 15079 ft 307 kts 155°
2026-04-25 21:48 19.31963 -98.81957 15653 ft 312 kts 176°
2026-04-25 21:49 19.29742 -98.81964 15946 ft 328 kts 183°
2026-04-25 21:49 19.27403 -98.82120 16157 ft 346 kts 184°
2026-04-25 21:49 19.24936 -98.82297 16358 ft 363 kts 184°
2026-04-25 21:49 19.22374 -98.82471 16727 ft 373 kts 184°
2026-04-25 21:50 19.19760 -98.82638 17204 ft 379 kts 183°
2026-04-25 21:50 19.17100 -98.82803 17690 ft 384 kts 183°
2026-04-25 21:50 19.14415 -98.82966 18206 ft 389 kts 183°
2026-04-25 21:50 19.12607 -98.83074 18378 ft 396 kts 183°
2026-04-25 21:51 19.08875 -98.83296 18811 ft 405 kts 183°
2026-04-25 21:51 19.06058 -98.83464 19304 ft 406 kts 183°
2026-04-25 21:51 19.03225 -98.83632 19670 ft 411 kts 184°
2026-04-25 21:51 19.00365 -98.83801 20130 ft 412 kts 184°
2026-04-25 21:52 18.97492 -98.83971 20629 ft 415 kts 184°
2026-04-25 21:52 18.94596 -98.84172 21041 ft 419 kts 187°
2026-04-25 21:52 18.91735 -98.84550 21581 ft 419 kts 189°
2026-04-25 21:52 18.89777 -98.84853 21849 ft 421 kts 189°
2026-04-25 21:53 18.86840 -98.85324 22324 ft 425 kts 189°
2026-04-25 21:53 18.83910 -98.85795 22829 ft 427 kts 189°
2026-04-25 21:53 18.80955 -98.86270 23296 ft 430 kts 189°
2026-04-25 21:53 18.77980 -98.86747 23713 ft 433 kts 189°
2026-04-25 21:54 18.74993 -98.87224 24069 ft 435 kts 189°
2026-04-25 21:54 18.71991 -98.87704 24477 ft 438 kts 189°
2026-04-25 21:54 18.69003 -98.88180 24887 ft 440 kts 189°
2026-04-25 21:54 18.65966 -98.88664 25269 ft 443 kts 190°
2026-04-25 21:55 18.62910 -98.89152 25624 ft 445 kts 190°
2026-04-25 21:55 18.59834 -98.89642 26006 ft 447 kts 190°
2026-04-25 21:55 18.56748 -98.90133 26375 ft 450 kts 190°
2026-04-25 21:55 18.53646 -98.90625 26688 ft 453 kts 189°
2026-04-25 21:56 18.50487 -98.90893 27028 ft 458 kts 181°
2026-04-25 21:56 18.48379 -98.90766 27256 ft 460 kts 174°
2026-04-25 21:56 18.44219 -98.89638 27718 ft 466 kts 158°
2026-04-25 21:56 18.41344 -98.88041 28029 ft 470 kts 146°
2026-04-25 21:57 18.38811 -98.85855 28333 ft 473 kts 135°
2026-04-25 21:57 18.36686 -98.83198 28614 ft 476 kts 127°
2026-04-25 21:57 18.35379 -98.81339 28805 ft 478 kts 126°
2026-04-25 21:57 18.33470 -98.78457 29111 ft 481 kts 124°
2026-04-25 21:58 18.30990 -98.74581 29504 ft 484 kts 124°
2026-04-25 21:58 18.29721 -98.72586 29715 ft 486 kts 124°
2026-04-25 21:58 18.27225 -98.68686 30210 ft 484 kts 124°
2026-04-25 21:58 18.25945 -98.66705 30481 ft 483 kts 124°
2026-04-25 21:59 18.24048 -98.63787 30866 ft 482 kts 124°
2026-04-25 21:59 18.22153 -98.60888 31257 ft 480 kts 124°
2026-04-25 21:59 18.20256 -98.57997 31663 ft 479 kts 125°
2026-04-25 22:00 18.16499 -98.52285 32386 ft 477 kts 125°
2026-04-25 22:00 18.14612 -98.49407 32739 ft 477 kts 124°
2026-04-25 22:00 18.12747 -98.46516 33105 ft 476 kts 124°
2026-04-25 22:00 18.10902 -98.43628 33467 ft 475 kts 124°
2026-04-25 22:01 18.09063 -98.40739 33809 ft 474 kts 124°
2026-04-25 22:01 18.07232 -98.37860 34114 ft 473 kts 124°
2026-04-25 22:01 18.05424 -98.35021 34391 ft 473 kts 124°
2026-04-25 22:01 18.04186 -98.33079 34587 ft 473 kts 124°
2026-04-25 22:02 18.01758 -98.29278 34935 ft 472 kts 124°
2026-04-25 22:02 17.99927 -98.26415 35194 ft 472 kts 124°
2026-04-25 22:02 17.98092 -98.23549 35461 ft 472 kts 124°
2026-04-25 22:02 17.96258 -98.20684 35699 ft 471 kts 124°
2026-04-25 22:03 17.94427 -98.17828 35939 ft 471 kts 124°
2026-04-25 22:03 17.92597 -98.14973 36170 ft 471 kts 124°
2026-04-25 22:03 17.90767 -98.12120 36385 ft 471 kts 124°
2026-04-25 22:03 17.88960 -98.09303 36598 ft 471 kts 124°
2026-04-25 22:04 17.87128 -98.06448 36743 ft 472 kts 124°
2026-04-25 22:04 17.85285 -98.03579 36809 ft 476 kts 124°
2026-04-25 22:04 17.81541 -97.97753 36809 ft 483 kts 124°
2026-04-25 22:05 17.77782 -97.91907 36809 ft 483 kts 124°
2026-04-25 22:05 17.74022 -97.86065 36841 ft 483 kts 124°
2026-04-25 22:06 17.70283 -97.80261 36875 ft 483 kts 124°
2026-04-25 22:06 17.66405 -97.74518 36875 ft 482 kts 127°
2026-04-25 22:07 17.63072 -97.69817 36892 ft 482 kts 127°
2026-04-25 22:07 17.58376 -97.63227 36925 ft 482 kts 127°
2026-04-25 22:08 17.54377 -97.57583 36927 ft 481 kts 127°
2026-04-25 22:08 17.50415 -97.51975 36924 ft 482 kts 127°
2026-04-25 22:09 17.46425 -97.46330 36945 ft 482 kts 127°
2026-04-25 22:09 17.42520 -97.40619 36944 ft 482 kts 125°
2026-04-25 22:10 17.38736 -97.34820 36944 ft 482 kts 124°
2026-04-25 22:10 17.34963 -97.29016 36930 ft 482 kts 124°
2026-04-25 22:11 17.31171 -97.23221 36937 ft 482 kts 124°
2026-04-25 22:11 17.27370 -97.17437 36935 ft 482 kts 125°
2026-04-25 22:12 17.23561 -97.11653 36913 ft 480 kts 124°
2026-04-25 22:12 17.20403 -97.06893 36913 ft 479 kts 124°
2026-04-25 22:13 17.15868 -97.00257 36937 ft 479 kts 125°
2026-04-25 22:13 17.11986 -96.94622 36951 ft 479 kts 125°
2026-04-25 22:14 17.08093 -96.88963 36977 ft 479 kts 125°
2026-04-25 22:14 17.04228 -96.83336 36992 ft 479 kts 125°
2026-04-25 22:15 17.00338 -96.77673 37008 ft 480 kts 125°
2026-04-25 22:16 16.95782 -96.68423 37009 ft 478 kts 109°
2026-04-25 22:16 16.93681 -96.61829 36994 ft 478 kts 106°
2026-04-25 22:17 16.91689 -96.55200 36895 ft 478 kts 106°
2026-04-25 22:17 16.89689 -96.48575 36884 ft 478 kts 106°
2026-04-25 22:18 16.87667 -96.41962 36884 ft 478 kts 107°
2026-04-25 22:18 16.85645 -96.35392 36885 ft 478 kts 107°
2026-04-25 22:19 16.83605 -96.28786 36879 ft 478 kts 107°
2026-04-25 22:19 16.81562 -96.22175 36864 ft 478 kts 107°
2026-04-25 22:20 16.79518 -96.15566 36844 ft 478 kts 107°
2026-04-25 22:20 16.77473 -96.08961 36843 ft 478 kts 107°
2026-04-25 22:21 16.75422 -96.02345 36828 ft 480 kts 107°
2026-04-25 22:21 16.73360 -95.95703 36830 ft 481 kts 107°
2026-04-25 22:22 16.71308 -95.89102 36807 ft 481 kts 107°
2026-04-25 22:22 16.69241 -95.82458 36810 ft 481 kts 107°
2026-04-25 22:23 16.67174 -95.75821 36800 ft 481 kts 107°
2026-04-25 22:23 16.65104 -95.69186 36797 ft 481 kts 106°
2026-04-25 22:24 16.63017 -95.62497 36802 ft 486 kts 106°
2026-04-25 22:24 16.60921 -95.55791 36803 ft 484 kts 107°
2026-04-25 22:25 16.58850 -95.49176 36801 ft 481 kts 107°
2026-04-25 22:25 16.56769 -95.42534 36805 ft 480 kts 107°
2026-04-25 22:26 16.54690 -95.35907 36809 ft 480 kts 107°
2026-04-25 22:26 16.52620 -95.29319 36810 ft 482 kts 107°
2026-04-25 22:27 16.50526 -95.22655 36811 ft 483 kts 107°
2026-04-25 22:27 16.48431 -95.16002 36818 ft 484 kts 107°
2026-04-25 22:28 16.46089 -95.09439 36814 ft 484 kts 117°
2026-04-25 22:28 16.42713 -95.03347 36814 ft 484 kts 121°
2026-04-25 22:29 16.39150 -94.97431 36825 ft 487 kts 122°
2026-04-25 22:29 16.35510 -94.91478 36822 ft 485 kts 122°
2026-04-25 22:30 16.30112 -94.82605 36831 ft 482 kts 122°
2026-04-25 22:30 16.27137 -94.77696 36829 ft 483 kts 122°
2026-04-25 22:31 16.22941 -94.70773 36832 ft 484 kts 122°
2026-04-25 22:31 16.19344 -94.64845 36832 ft 484 kts 122°
2026-04-25 22:32 16.15751 -94.58930 36832 ft 484 kts 122°
2026-04-25 22:32 16.12149 -94.53005 36835 ft 484 kts 122°
2026-04-25 22:33 16.08572 -94.47127 36835 ft 483 kts 122°
2026-04-25 22:33 16.04967 -94.41207 36840 ft 484 kts 122°
2026-04-25 22:34 16.01360 -94.35288 36835 ft 483 kts 122°
2026-04-25 22:34 15.97762 -94.29388 36835 ft 483 kts 122°
2026-04-25 22:35 15.94180 -94.23520 36839 ft 483 kts 122°
2026-04-25 22:35 15.90571 -94.17612 36840 ft 484 kts 122°
2026-04-25 22:36 15.86965 -94.11713 36840 ft 483 kts 122°
2026-04-25 22:36 15.83355 -94.05814 36840 ft 483 kts 122°
2026-04-25 22:37 15.79767 -93.99956 36842 ft 483 kts 122°
2026-04-25 22:37 15.76151 -93.94055 36845 ft 483 kts 122°
2026-04-25 22:38 15.72540 -93.88166 36843 ft 483 kts 122°
2026-04-25 22:38 15.68924 -93.82274 36843 ft 483 kts 122°
2026-04-25 22:39 15.65334 -93.76429 36846 ft 483 kts 122°
2026-04-25 22:39 15.61724 -93.70556 36845 ft 482 kts 122°
2026-04-25 22:40 15.58114 -93.64689 36843 ft 482 kts 122°
2026-04-25 22:40 15.54504 -93.58825 36838 ft 482 kts 122°
2026-04-25 22:41 15.50891 -93.52962 36843 ft 482 kts 122°
2026-04-25 22:41 15.47275 -93.47098 36843 ft 482 kts 122°
2026-04-25 22:42 15.43661 -93.41242 36843 ft 482 kts 122°
2026-04-25 22:42 15.40068 -93.35423 36843 ft 482 kts 122°
2026-04-25 22:43 15.36446 -93.29564 36843 ft 482 kts 123°
2026-04-25 22:43 15.32827 -93.23713 36843 ft 482 kts 123°
2026-04-25 22:44 15.29817 -93.18850 36843 ft 482 kts 123°
2026-04-25 22:44 15.26192 -93.12998 36838 ft 482 kts 123°
2026-04-25 22:45 15.22569 -93.07154 36843 ft 482 kts 123°
2026-04-25 22:45 15.18943 -93.01308 36842 ft 482 kts 123°
2026-04-25 22:46 15.15338 -92.95502 36843 ft 481 kts 123°
2026-04-25 22:46 15.11719 -92.89677 36856 ft 481 kts 123°
2026-04-25 22:47 15.08099 -92.83855 36856 ft 481 kts 123°
2026-04-25 22:47 15.04471 -92.78024 36856 ft 481 kts 123°
2026-04-25 22:48 15.00844 -92.72201 36873 ft 481 kts 123°
2026-04-25 22:48 14.97241 -92.66421 36877 ft 481 kts 123°
2026-04-25 22:49 14.93618 -92.60614 36870 ft 480 kts 123°
2026-04-25 22:49 14.89993 -92.54809 36867 ft 479 kts 123°
2026-04-25 22:50 14.86372 -92.49016 36865 ft 479 kts 123°
2026-04-25 22:50 14.82773 -92.43260 36860 ft 479 kts 123°
2026-04-25 22:51 14.79156 -92.37461 36860 ft 479 kts 122°
2026-04-25 22:51 14.75747 -92.31534 36914 ft 479 kts 120°
2026-04-25 22:52 14.72450 -92.25551 36941 ft 479 kts 120°
2026-04-25 22:52 14.69701 -92.20573 36941 ft 479 kts 120°
2026-04-25 22:53 14.65838 -92.13638 36974 ft 479 kts 120°
2026-04-25 22:53 14.62526 -92.07665 36936 ft 479 kts 120°
2026-04-25 22:54 14.59217 -92.01687 36936 ft 479 kts 120°
2026-04-25 22:54 14.55928 -91.95749 36963 ft 479 kts 120°
2026-04-25 22:55 14.52614 -91.89774 36966 ft 479 kts 120°
2026-04-25 22:55 14.50958 -91.86789 36842 ft 479 kts 120°
2026-04-25 22:55 14.49300 -91.83805 36835 ft 479 kts 120°
2026-04-25 22:56 14.45981 -91.77831 36832 ft 482 kts 120°
2026-04-25 22:56 14.42630 -91.71805 36832 ft 485 kts 120°
2026-04-25 22:57 14.39271 -91.65768 36836 ft 485 kts 121°
2026-04-25 22:57 14.35933 -91.59773 36851 ft 484 kts 121°
2026-04-25 22:58 14.32567 -91.53735 36865 ft 484 kts 121°
2026-04-25 22:58 14.29210 -91.47714 36913 ft 484 kts 121°
2026-04-25 22:59 14.25851 -91.41696 36955 ft 484 kts 121°
2026-04-25 22:59 14.22517 -91.35728 36979 ft 483 kts 121°
2026-04-25 23:00 14.19160 -91.29720 36944 ft 483 kts 121°
2026-04-25 23:00 14.15827 -91.23704 36944 ft 483 kts 120°
2026-04-25 23:01 14.12502 -91.17679 36963 ft 483 kts 120°
2026-04-25 23:01 14.09180 -91.11669 36962 ft 483 kts 120°
2026-04-25 23:02 14.05855 -91.05661 36955 ft 483 kts 120°
2026-04-25 23:02 14.02530 -90.99659 36955 ft 482 kts 120°
2026-04-25 23:03 13.99215 -90.93680 36955 ft 482 kts 120°
2026-04-25 23:03 13.95884 -90.87678 36971 ft 482 kts 120°
2026-04-25 23:04 13.93393 -90.82551 36974 ft 483 kts 110°
2026-04-25 23:04 13.91959 -90.78160 36732 ft 483 kts 108°
2026-04-25 23:04 13.90975 -90.74848 36339 ft 483 kts 107°
2026-04-25 23:05 13.90034 -90.71529 35954 ft 484 kts 106°
2026-04-25 23:05 13.89106 -90.68194 35525 ft 484 kts 106°
2026-04-25 23:05 13.88187 -90.64877 35104 ft 480 kts 106°
2026-04-25 23:05 13.87271 -90.61590 34688 ft 475 kts 106°
2026-04-25 23:06 13.86357 -90.58330 34289 ft 473 kts 107°
2026-04-25 23:06 13.85441 -90.55081 33862 ft 473 kts 107°
2026-04-25 23:06 13.84532 -90.51869 33409 ft 473 kts 107°
2026-04-25 23:06 13.83607 -90.48612 32952 ft 474 kts 107°
2026-04-25 23:07 13.82680 -90.45351 32510 ft 475 kts 107°
2026-04-25 23:07 13.81752 -90.42087 32059 ft 476 kts 107°
2026-04-25 23:07 13.80822 -90.38821 31581 ft 474 kts 106°
2026-04-25 23:07 13.79898 -90.35575 31057 ft 471 kts 106°
2026-04-25 23:08 13.78980 -90.32352 30543 ft 468 kts 106°
2026-04-25 23:08 13.78060 -90.29145 30016 ft 465 kts 106°
2026-04-25 23:08 13.77142 -90.25965 29431 ft 462 kts 106°
2026-04-25 23:08 13.76228 -90.22805 28821 ft 460 kts 106°
2026-04-25 23:09 13.75318 -90.19663 28205 ft 458 kts 106°
2026-04-25 23:09 13.74410 -90.16529 27604 ft 456 kts 106°
2026-04-25 23:09 13.73505 -90.13406 27026 ft 454 kts 106°
2026-04-25 23:09 13.72622 -90.10343 26458 ft 452 kts 105°
2026-04-25 23:10 13.71734 -90.07236 25891 ft 450 kts 105°
2026-04-25 23:10 13.70855 -90.04154 25337 ft 448 kts 105°
2026-04-25 23:10 13.69982 -90.01094 24793 ft 443 kts 105°
2026-04-25 23:10 13.69118 -89.98067 24263 ft 440 kts 105°
2026-04-25 23:11 13.68260 -89.95064 23748 ft 436 kts 105°
2026-04-25 23:11 13.67408 -89.92085 23166 ft 432 kts 105°
2026-04-25 23:11 13.66563 -89.89132 22560 ft 428 kts 105°
2026-04-25 23:11 13.65735 -89.86240 21966 ft 424 kts 105°
2026-04-25 23:12 13.64905 -89.83340 21422 ft 419 kts 105°
2026-04-25 23:12 13.64084 -89.80474 20890 ft 414 kts 105°
2026-04-25 23:12 13.63275 -89.77652 20352 ft 409 kts 105°
2026-04-25 23:12 13.62476 -89.74868 19840 ft 404 kts 104°
2026-04-25 23:13 13.61688 -89.72120 19325 ft 399 kts 104°
2026-04-25 23:13 13.60907 -89.69399 18836 ft 394 kts 105°
2026-04-25 23:13 13.60146 -89.66747 18357 ft 389 kts 104°
2026-04-25 23:13 13.59375 -89.64066 17809 ft 384 kts 104°
2026-04-25 23:14 13.58646 -89.61527 17276 ft 379 kts 104°
2026-04-25 23:14 13.57902 -89.58941 16733 ft 374 kts 104°
2026-04-25 23:14 13.57183 -89.56442 16201 ft 364 kts 104°
2026-04-25 23:14 13.56473 -89.53978 15668 ft 354 kts 103°
2026-04-25 23:15 13.55783 -89.51580 15157 ft 345 kts 104°
2026-04-25 23:15 13.55110 -89.49244 14650 ft 337 kts 104°
2026-04-25 23:15 13.54453 -89.46962 14155 ft 329 kts 104°
2026-04-25 23:15 13.53809 -89.44727 13655 ft 322 kts 103°
2026-04-25 23:16 13.53177 -89.42536 13110 ft 318 kts 103°
2026-04-25 23:16 13.52557 -89.40379 12563 ft 319 kts 103°
2026-04-25 23:16 13.51929 -89.38198 11971 ft 317 kts 104°
2026-04-25 23:16 13.51306 -89.36037 11512 ft 312 kts 103°
2026-04-25 23:17 13.50695 -89.33923 11111 ft 304 kts 103°
2026-04-25 23:17 13.50101 -89.31870 10732 ft 296 kts 103°
2026-04-25 23:17 13.49515 -89.29841 10348 ft 294 kts 103°
2026-04-25 23:17 13.48942 -89.27853 9939 ft 294 kts 104°
2026-04-25 23:18 13.48359 -89.25835 9453 ft 295 kts 104°
2026-04-25 23:18 13.47776 -89.23815 8950 ft 295 kts 104°
2026-04-25 23:18 13.47190 -89.21788 8464 ft 295 kts 104°
2026-04-25 23:18 13.46608 -89.19775 7971 ft 290 kts 104°
2026-04-25 23:19 13.46039 -89.17810 7494 ft 284 kts 105°
2026-04-25 23:19 13.45481 -89.15885 7032 ft 278 kts 104°
2026-04-25 23:19 13.44929 -89.13979 6572 ft 279 kts 105°
2026-04-25 23:19 13.44376 -89.12064 6103 ft 281 kts 105°
2026-04-25 23:20 13.43816 -89.10130 5614 ft 283 kts 106°
2026-04-25 23:20 13.43307 -89.08178 5200 ft 282 kts 101°
2026-04-25 23:20 13.43014 -89.06189 4794 ft 279 kts 96°
2026-04-25 23:20 13.42860 -89.04211 4456 ft 277 kts 94°
2026-04-25 23:21 13.42773 -89.02245 4121 ft 275 kts 92°
2026-04-25 23:21 13.42707 -89.00289 3751 ft 273 kts 92°
2026-04-25 23:21 13.42640 -88.98374 3431 ft 267 kts 92°
2026-04-25 23:21 13.42565 -88.96505 3114 ft 258 kts 92°
2026-04-25 23:22 13.42527 -88.94715 3033 ft 240 kts 85°
2026-04-25 23:22 13.42864 -88.93122 3010 ft 221 kts 67°
2026-04-25 23:22 13.43628 -88.91799 2803 ft 213 kts 45°
2026-04-25 23:23 13.46128 -88.90580 2434 ft 196 kts 356°
2026-04-25 23:23 13.47430 -88.90865 2335 ft 189 kts 325°
2026-04-25 23:23 13.48153 -88.91873 2237 ft 175 kts 281°
2026-04-25 23:23 13.48218 -88.93109 2152 ft 174 kts 266°
2026-04-25 23:24 13.48035 -88.94326 2027 ft 170 kts 254°
2026-04-25 23:24 13.47663 -88.95453 1829 ft 164 kts 251°
2026-04-25 23:24 13.47298 -88.96515 1654 ft 149 kts 249°
2026-04-25 23:24 13.46954 -88.97485 1441 ft 141 kts 251°
2026-04-25 23:25 13.46625 -88.98421 1251 ft 138 kts 249°
2026-04-25 23:25 13.46300 -88.99342 1082 ft 136 kts 249°
2026-04-25 23:25 13.45977 -89.00254 917 ft 136 kts 251°
2026-04-25 23:25 13.45764 -89.00856 811 ft 135 kts 248°
2026-04-25 23:26 13.45338 -89.02072 611 ft 136 kts 250°
2026-04-25 23:26 13.45033 -89.02970 379 ft 131 kts 247°
2026-04-25 23:26 13.44713 -89.03845 210 ft 132 kts 246°
2026-04-25 23:26 13.44406 -89.04715 117 ft 122 kts 246°
2026-04-25 23:27 13.44143 -89.05432 96 ft 84 kts 249°
2026-04-25 23:27 13.44026 -89.05806 94 ft 22 kts 287°
2026-04-25 23:27 13.44099 -89.05870 93 ft 8 kts 340°
2026-04-25 23:27 13.44144 -89.05887 95 ft 6 kts 340°
2026-04-25 23:28 13.44180 -89.05903 93 ft 5 kts 335°
2026-04-25 23:28 13.44208 -89.05913 95 ft 4 kts 341°
2026-04-25 23:28 13.44231 -89.05916 95 ft 3 kts
2026-04-25 23:28 13.44241 -89.05910 96 ft 4 kts 33°
2026-04-25 23:29 13.44268 -89.05863 96 ft 7 kts 69°
2026-04-25 23:29 13.44288 -89.05806 96 ft 6 kts 69°
2026-04-25 23:29 13.44299 -89.05778 95 ft 7 kts 69°
2026-04-25 23:29 13.44324 -89.05707 96 ft 7 kts 70°
2026-04-25 23:30 13.44340 -89.05661 96 ft 8 kts 70°
2026-04-25 23:30 13.44359 -89.05625 97 ft 8 kts 38°
2026-04-25 23:30 13.44405 -89.05629 99 ft 6 kts 341°
2026-04-25 23:30 13.44429 -89.05637 97 ft 0 kts 341°